Weather History for Menomonie, WI

Change the Weather History Date:

Tuesday, July 22, 2014

  Actual Average (KEAU) Record (KEAU)
Temperature  
Mean Temperature 74 °F 72 °F  
Max Temperature 83 °F 83 °F 104 °F (1934)
Min Temperature 66 °F 60 °F 45 °F (1947)
Degree Days  
Heating Degree Days 0 0  
Month to date heating degree days 2  
Since 1 June heating degree days 64  
Since 1 July heating degree days 2  
Cooling Degree Days 10 7  
Month to date cooling degree days 153  
Year to date cooling degree days 305  
Since 1 June cooling degree days 273  
Growing Degree Days 24 (Base 50)    
Moisture  
Dew Point 65 °F    
Average Humidity 66    
Maximum Humidity 83    
Minimum Humidity 47    
Precipitation  
Precipitation 0.00 in 0.12 in 2.07 in (2007)
Month to date precipitation 2.73  
Year to date precipitation 16.50  
Snow  
Snow 0.00 in 0.00 in 0.00 in ()
Month to date snowfall 0.0  
Since 1 June snowfall 0.0  
Since 1 July snowfall 0.0  
Snow Depth -    
Sea Level Pressure  
Sea Level Pressure 29.96 in    
Wind  
Wind Speed 10 mph (WNW)    
Max Wind Speed 21 mph    
Max Gust Speed 26 mph    
Visibility 10 miles    
Events      
T = Trace of Precipitation, MM = Missing Value Source: NWS Daily Summary

Daily Weather History Graph

Daily Weather History Graph

Search for Another Location

Airport:

Trip Planner

Search our weather history database for the weather conditions in past years. The results will help you decide how hot, cold, wet, or windy it might be!

Date:

Astronomy

Jul. 22, 2014 Rise Set
Actual Time 5:42 AM CDT 8:44 PM CDT
Civil Twilight 5:07 AM CDT 9:19 PM CDT
Nautical Twilight 4:22 AM CDT 10:04 PM CDT
Astronomical Twilight 3:28 AM CDT 10:57 PM CDT
Moon 2:17 AM CDT (7/22) 5:21 PM CDT (7/22)
Length of Visible Light 16h 12m
Length of Day
15h 02m
Waning Crescent, 16% of the Moon is Illuminated
Jul 22
Waning Crescent
Jul 26
New
Aug 3
First Quarter
Aug 10
Full
Aug 17
Last Quarter

Hourly Weather History & Observations

Time (CDT) Temp. Heat Index Dew Point Humidity Pressure Visibility Wind Dir Wind Speed Gust Speed Precip Events Conditions
12:15 AM 79.7 °F - 69.8 °F 72% 29.87 in 10.0 mi SE 8.1 mph - N/A   Overcast
12:35 AM 79.3 °F - 69.8 °F 72% 29.87 in 10.0 mi SE 8.1 mph - N/A   Overcast
12:55 AM 79.0 °F - 70.0 °F 74% 29.87 in 10.0 mi SE 9.2 mph - N/A   Overcast
1:15 AM 79.2 °F - 70.2 °F 74% 29.86 in 10.0 mi SSE 10.4 mph - N/A   Overcast
1:35 AM 79.3 °F - 70.3 °F 74% 29.85 in 10.0 mi SSE 11.5 mph - N/A   Overcast
1:55 AM 79.7 °F - 70.7 °F 74% 29.85 in 10.0 mi SSE 13.8 mph 17.3 mph N/A   Overcast
2:15 AM 79.2 °F - 70.9 °F 76% 29.84 in 10.0 mi SSE 12.7 mph - N/A   Scattered Clouds
2:35 AM 79.0 °F - 71.4 °F 78% 29.85 in 10.0 mi South 10.4 mph - N/A   Mostly Cloudy
2:55 AM 78.8 °F - 71.6 °F 78% 29.83 in 10.0 mi SSE 13.8 mph 17.3 mph N/A   Scattered Clouds
3:15 AM 78.3 °F - 71.6 °F 80% 29.83 in 10.0 mi South 8.1 mph - N/A   Clear
3:35 AM 78.4 °F - 71.6 °F 79% 29.82 in 10.0 mi SSE 9.2 mph - N/A   Scattered Clouds
3:55 AM 78.4 °F - 71.8 °F 80% 29.82 in 10.0 mi South 9.2 mph - N/A   Mostly Cloudy
4:15 AM 78.8 °F - 71.8 °F 79% 29.82 in 10.0 mi South 15.0 mph 19.6 mph N/A   Overcast
4:35 AM 79.0 °F - 71.8 °F 78% 29.81 in 10.0 mi South 20.7 mph 26.5 mph N/A   Overcast
4:55 AM 78.8 °F - 72.0 °F 79% 29.81 in 10.0 mi South 17.3 mph - N/A   Overcast
5:15 AM 78.4 °F - 72.1 °F 81% 29.82 in 10.0 mi South 10.4 mph - N/A   Overcast
6:35 AM 78.8 °F - 73.4 °F 83% 29.85 in 10.0 mi SW 9.2 mph - N/A   Overcast
6:55 AM 79.2 °F - 73.6 °F 83% 29.86 in 10.0 mi SW 9.2 mph - N/A   Overcast
7:15 AM 79.7 °F - 74.3 °F 83% 29.86 in 7.0 mi SW 9.2 mph - N/A   Scattered Clouds
7:35 AM 80.8 °F 86.1 °F 74.5 °F 81% 29.86 in 7.0 mi SW 10.4 mph - N/A   Clear
7:55 AM 81.3 °F 87.0 °F 74.3 °F 79% 29.87 in 7.0 mi WSW 11.5 mph 18.4 mph N/A   Clear
8:15 AM 81.0 °F 84.4 °F 69.8 °F 69% 29.88 in 10.0 mi West 16.1 mph 21.9 mph N/A   Scattered Clouds
8:35 AM 79.0 °F - 64.6 °F 61% 29.91 in 10.0 mi West 19.6 mph 26.5 mph N/A   Clear
8:55 AM 77.9 °F - 64.0 °F 62% 29.91 in 10.0 mi West 15.0 mph - N/A   Clear
9:15 AM 78.3 °F - 64.2 °F 62% 29.92 in 10.0 mi WNW 16.1 mph 20.7 mph N/A   Clear
9:35 AM 77.9 °F - 64.8 °F 64% 29.91 in 10.0 mi WNW 11.5 mph 17.3 mph N/A   Scattered Clouds
9:55 AM 78.1 °F - 64.8 °F 63% 29.91 in 10.0 mi West 12.7 mph - N/A   Clear
10:15 AM 79.0 °F - 64.6 °F 61% 29.91 in 10.0 mi NNW 8.1 mph - N/A   Scattered Clouds
10:35 AM 78.8 °F - 63.9 °F 60% 29.93 in 10.0 mi NW 12.7 mph 17.3 mph N/A   Scattered Clouds
10:55 AM 78.4 °F - 64.4 °F 62% 29.94 in 10.0 mi NW 9.2 mph - N/A   Mostly Cloudy
11:15 AM 77.9 °F - 64.2 °F 63% 29.96 in 10.0 mi NW 9.2 mph - N/A   Overcast
11:35 AM 79.2 °F - 65.1 °F 62% 29.95 in 10.0 mi NW 10.4 mph - N/A   Overcast
12:15 PM 81.3 °F 83.3 °F 65.7 °F 59% 29.97 in 10.0 mi WNW 11.5 mph 16.1 mph N/A   Mostly Cloudy
12:35 PM 81.0 °F 82.7 °F 65.1 °F 58% 29.97 in 10.0 mi NW 10.4 mph - N/A   Mostly Cloudy
12:55 PM 80.2 °F 82.2 °F 65.5 °F 61% 29.96 in 10.0 mi NW 4.6 mph 16.1 mph N/A   Mostly Cloudy
1:15 PM 82.8 °F 84.9 °F 66.2 °F 57% 29.97 in 10.0 mi NW 9.2 mph - N/A   Mostly Cloudy
1:35 PM 81.7 °F 83.6 °F 65.7 °F 58% 29.97 in 10.0 mi WNW 10.4 mph 16.1 mph N/A   Mostly Cloudy
1:55 PM 82.0 °F 83.8 °F 64.9 °F 56% 29.99 in 10.0 mi WNW 11.5 mph 17.3 mph N/A   Mostly Cloudy
2:15 PM 82.2 °F 84.2 °F 65.5 °F 57% 29.99 in 10.0 mi West 10.4 mph 18.4 mph N/A   Scattered Clouds
2:35 PM 81.3 °F 83.0 °F 64.6 °F 57% 30.00 in 10.0 mi WNW 12.7 mph 19.6 mph N/A   Scattered Clouds
2:55 PM 82.4 °F 83.7 °F 63.9 °F 53% 30.00 in 10.0 mi WNW 15.0 mph 20.7 mph N/A   Scattered Clouds
3:15 PM 80.8 °F 81.9 °F 62.4 °F 53% 30.01 in 10.0 mi WNW 15.0 mph 18.4 mph N/A   Scattered Clouds
3:35 PM 81.1 °F 82.1 °F 62.2 °F 52% 30.01 in 10.0 mi WNW 10.4 mph 19.6 mph N/A   Scattered Clouds
3:55 PM 80.8 °F 82.0 °F 62.8 °F 54% 30.02 in 10.0 mi NW 10.4 mph - N/A   Mostly Cloudy
4:15 PM 81.3 °F 82.2 °F 61.3 °F 51% 30.02 in 10.0 mi NW 12.7 mph 17.3 mph N/A   Scattered Clouds
4:35 PM 81.9 °F 82.5 °F 61.2 °F 49% 30.03 in 10.0 mi NNW 10.4 mph 16.1 mph N/A   Scattered Clouds
4:55 PM 79.0 °F - 60.6 °F 53% 30.03 in 10.0 mi NNW 8.1 mph - N/A   Scattered Clouds
5:15 PM 81.7 °F 82.3 °F 60.8 °F 49% 30.03 in 10.0 mi NW 10.4 mph - N/A   Scattered Clouds
5:35 PM 81.5 °F 82.0 °F 60.3 °F 48% 30.04 in 10.0 mi WNW 10.4 mph - N/A   Scattered Clouds
5:55 PM 81.3 °F 81.9 °F 60.4 °F 49% 30.05 in 10.0 mi WNW 9.2 mph - N/A   Scattered Clouds
6:15 PM 81.5 °F 81.8 °F 59.2 °F 47% 30.05 in 10.0 mi NW 9.2 mph 18.4 mph N/A   Scattered Clouds
6:35 PM 80.6 °F 81.2 °F 59.9 °F 49% 30.05 in 10.0 mi NW 9.2 mph - N/A   Scattered Clouds
6:55 PM 80.2 °F 80.9 °F 59.7 °F 49% 30.06 in 10.0 mi NW 9.2 mph - N/A   Scattered Clouds
7:15 PM 78.1 °F - 59.5 °F 53% 30.07 in 10.0 mi NW 8.1 mph - N/A   Clear
7:35 PM 78.3 °F - 60.4 °F 54% 30.08 in 10.0 mi NNW 8.1 mph - N/A   Clear
7:55 PM 76.8 °F - 61.0 °F 58% 30.08 in 10.0 mi NW 5.8 mph - N/A   Clear
8:15 PM 76.1 °F - 61.2 °F 60% 30.08 in 10.0 mi NW 6.9 mph - N/A   Clear
8:35 PM 74.3 °F - 61.7 °F 65% 30.09 in 10.0 mi NW 5.8 mph - N/A   Clear
8:55 PM 73.8 °F - 61.2 °F 65% 30.09 in 10.0 mi NW 5.8 mph - N/A   Clear
9:15 PM 73.6 °F - 60.8 °F 64% 30.10 in 10.0 mi NNW 5.8 mph - N/A   Scattered Clouds
9:35 PM 72.5 °F - 61.0 °F 67% 30.10 in 10.0 mi NNW 6.9 mph - N/A   Scattered Clouds
9:55 PM 71.1 °F - 61.0 °F 70% 30.10 in 10.0 mi NNW 5.8 mph - N/A   Clear
10:15 PM 70.5 °F - 60.8 °F 71% 30.11 in 10.0 mi NNW 5.8 mph - N/A   Clear
10:35 PM 69.8 °F - 60.6 °F 73% 30.11 in 10.0 mi NNW 4.6 mph - N/A   Clear
10:55 PM 68.5 °F - 60.8 °F 76% 30.11 in 10.0 mi NNW 5.8 mph - N/A   Clear
11:15 PM 67.8 °F - 60.8 °F 78% 30.12 in 10.0 mi NNW 5.8 mph - N/A   Clear
11:35 PM 67.5 °F - 60.8 °F 79% 30.13 in 10.0 mi NNW 5.8 mph - N/A   Clear
11:55 PM 66.7 °F - 60.8 °F 81% 30.14 in 10.0 mi NNW 4.6 mph - N/A   Clear